Meadows Field Information

FAA: BFL - ICAO: KBFL

Meadows Field (Airport) Location

State California
County Kern
City Bakersfield
Meadows Field (Airport) is 3 miles northwest of Bakersfield, CA.
Latitude 35-26-01.9000N
Longitude 119-03-27.6000W
Elevation 509ft

Meadows Field METARs

METAR KBFL 121354Z 25003KT 8SM CLR 22/12 A2999 RMK AO2 SLP149 T02220117
Altimeter 29.99"
Temperature 22.2°C (72.0°F)
Wind 250° at 3KT
Clouds Skies are clear.
Visibility 8.0mi
Time observed: 2022-08-12T13:54:00Z

Meadows Field (Airport) Details

Status Operational
Activation April 1940
Ownership Public
Usage Public
Chart LOS ANGELES
ATC on-site Yes
Beacon schedule sunset-sunrise
Beacon color clear green

Meadows Field (Airport) Contacts

Owner COUNTY OF KERN
Owner address DEPT OF ARPTS, 3701 WINGS WAY, #300, 3701 WINGS WAY, SUITE 300, BAKERSFIELD, CA 93308
Owner phone 661-391-1800
Manager JOSHUA SHARP
Manager address 420 34TH ST, BAKERSFIELD, CA 93301
Manager phone 661-327-4647

Meadows Field Radio Frequencies

Meadows Field (Airport) Radio Frequencies

UNICOM 122.95
Common traffic advisory frequency (CTAF) 118.1